Date String (YYYY-MM-DD hh:mm:ss) UTC,Instrument flags,Ambient pressure (hPa),Sample flow (lpm),Bypass flow (lpm),Sample temperature (°C),Ambient temperature (°C),ASC tube jacket temperature (°C),LED temperature (°C),Box temperature (°C),Sample RH (%),Span deviation,Mass concentration (μg/m³),Mass concentration (μg/m³),Mass concentration (μg/m³)
DateTimeUTC,F1_M11,P_M11,Q1_M11,Q2_M11,T1_M11,T2_M11,T3_M11,T4_M11,T5_M11,U1_M11,ZSPAN_M11,X0_M11,X2_M11,X1_M11
2023-01-27 10:00:00,,0822.4,5.00,0.00,22.2,20.3,00.0,31.2,23.8,07.6,0000.0,0002.48,0000.53,0000.35
2023-01-27 10:01:00,,0822.4,5.00,0.00,22.2,20.6,00.0,31.1,23.8,07.6,0000.0,0002.45,0000.52,0000.35
2023-01-27 10:02:00,,0822.4,4.99,0.00,22.3,21.7,00.0,31.1,24.1,07.6,0000.0,0002.38,0000.53,0000.35
2023-01-27 10:03:00,,0822.4,5.01,0.00,22.4,22.7,00.0,31.1,24.4,07.8,0000.0,0001.94,0000.51,0000.34
2023-01-27 10:04:00,,0822.5,4.98,0.00,22.5,22.7,00.0,31.1,24.5,07.6,0000.0,0001.85,0000.52,0000.34
2023-01-27 10:05:00,,0822.4,5.02,0.00,22.5,22.3,00.0,31.2,24.4,07.6,0000.0,0001.74,0000.52,0000.34
2023-01-27 10:06:00,,0822.5,4.99,0.00,22.5,21.9,00.0,31.2,24.3,07.6,0000.0,0001.46,0000.58,0000.35
2023-01-27 10:07:00,,0822.5,5.00,0.00,22.5,21.6,00.0,31.2,24.3,07.7,0000.0,0001.58,0000.61,0000.36
2023-01-27 10:08:00,,0822.5,5.00,0.00,22.5,21.4,00.0,31.2,24.2,07.8,0000.0,0001.49,0000.58,0000.35
2023-01-27 10:09:00,,0822.5,5.02,0.00,22.4,21.2,00.0,31.3,24.2,07.7,0000.0,0001.98,0000.58,0000.36
2023-01-27 10:10:00,,0822.4,5.01,0.00,22.4,21.1,00.0,31.3,24.2,07.7,0000.0,0002.37,0000.59,0000.36
2023-01-27 10:11:00,,0822.5,5.00,0.00,22.4,21.1,00.0,31.3,24.2,07.7,0000.0,0002.45,0000.60,0000.36
2023-01-27 10:12:00,,0822.4,4.99,0.00,22.4,21.0,00.0,31.3,24.1,07.7,0000.0,0002.58,0000.63,0000.37
2023-01-27 10:13:00,,0822.4,5.00,0.00,22.4,20.9,00.0,31.3,24.1,07.8,0000.0,0002.54,0000.62,0000.37
2023-01-27 10:14:00,,0822.4,5.00,0.00,22.4,20.7,00.0,31.3,24.1,07.9,0000.0,0003.24,0000.61,0000.38
2023-01-27 10:15:00,,0822.4,4.98,0.00,22.3,20.6,00.0,31.2,24.0,07.9,0000.0,0003.32,0000.59,0000.37
2023-01-27 10:16:00,,0822.4,5.00,0.00,22.3,20.5,00.0,31.2,24.0,07.9,0000.0,0003.33,0000.58,0000.37
2023-01-27 10:17:00,,0822.4,5.00,0.00,22.3,20.4,00.0,31.2,23.9,08.1,0000.0,0003.07,0000.51,0000.36
2023-01-27 10:18:00,,0822.4,5.01,0.00,22.2,20.4,00.0,31.2,23.9,08.0,0000.0,0002.92,0000.51,0000.36
2023-01-27 10:19:00,,0822.4,4.98,0.00,22.2,20.4,00.0,31.2,23.9,08.0,0000.0,0002.99,0000.54,0000.36
2023-01-27 10:20:00,,0822.4,5.01,0.00,22.2,20.4,00.0,31.2,23.9,07.9,0000.0,0002.43,0000.54,0000.36
2023-01-27 10:21:00,,0822.4,5.00,0.00,22.2,20.5,00.0,31.1,23.9,07.8,0000.0,0002.11,0000.54,0000.36
2023-01-27 10:22:00,,0822.4,5.03,0.00,22.2,20.5,00.0,31.1,23.9,07.7,0000.0,0001.89,0000.50,0000.36
2023-01-27 10:23:00,,0822.4,5.00,0.00,22.2,20.5,00.0,31.1,23.9,07.6,0000.0,0001.86,0000.50,0000.35
2023-01-27 10:24:00,,0822.4,5.00,0.00,22.2,20.5,00.0,31.1,23.8,07.7,0000.0,0001.92,0000.51,0000.36
2023-01-27 10:25:00,,0822.4,5.01,0.00,22.2,20.6,00.0,31.1,23.8,07.7,0000.0,0001.34,0000.52,0000.36
2023-01-27 10:26:00,,0822.4,4.98,0.00,22.2,20.9,00.0,31.0,23.9,07.7,0000.0,0001.31,0000.54,0000.37
2023-01-27 10:27:00,,0822.4,5.01,0.00,22.3,21.9,00.0,31.0,24.2,07.7,0000.0,0001.77,0000.60,0000.38
2023-01-27 10:28:00,,0822.5,5.01,0.00,22.4,22.9,00.0,31.0,24.4,07.7,0000.0,0001.82,0000.62,0000.39
2023-01-27 10:29:00,,0822.4,4.99,0.00,22.5,22.8,00.0,31.1,24.5,07.7,0000.0,0001.92,0000.62,0000.40
2023-01-27 10:30:00,,0822.4,5.00,0.00,22.5,22.3,00.0,31.1,24.4,07.6,0000.0,0002.38,0000.60,0000.40
2023-01-27 10:31:00,,0822.4,5.01,0.00,22.5,21.9,00.0,31.2,24.3,07.6,0000.0,0002.37,0000.60,0000.40
2023-01-27 10:32:00,,0822.4,4.99,0.00,22.5,21.7,00.0,31.2,24.3,07.7,0000.0,0002.35,0000.60,0000.40
2023-01-27 10:33:00,,0822.4,4.99,0.00,22.4,21.5,00.0,31.2,24.2,07.8,0000.0,0002.32,0000.59,0000.40
2023-01-27 10:34:00,,0822.4,5.00,0.00,22.4,21.3,00.0,31.2,24.2,07.9,0000.0,0002.30,0000.59,0000.41
2023-01-27 10:35:00,,0822.4,4.98,0.00,22.4,21.1,00.0,31.2,24.2,08.0,0000.0,0002.25,0000.59,0000.41
2023-01-27 10:36:00,,0822.4,5.00,0.00,22.4,21.0,00.0,31.2,24.1,08.3,0000.0,0002.13,0000.59,0000.41
2023-01-27 10:37:00,,0822.4,4.99,0.00,22.4,20.8,00.0,31.2,24.1,08.2,0000.0,0002.07,0000.59,0000.41
2023-01-27 10:38:00,,0822.4,5.00,0.00,22.3,20.6,00.0,31.2,24.0,08.0,0000.0,0001.72,0000.56,0000.41
2023-01-27 10:39:00,,0822.4,4.99,0.00,22.3,20.5,00.0,31.2,24.0,08.1,0000.0,0001.56,0000.53,0000.40
2023-01-27 10:40:00,,0822.4,4.98,0.00,22.3,20.5,00.0,31.2,24.0,07.9,0000.0,0001.46,0000.52,0000.40
2023-01-27 10:41:00,,0822.4,5.00,0.00,22.3,20.5,00.0,31.2,24.0,07.9,0000.0,0000.98,0000.52,0000.39
2023-01-27 10:42:00,,0822.4,4.99,0.00,22.2,20.6,00.0,31.2,23.9,07.8,0000.0,0000.83,0000.51,0000.39
2023-01-27 10:43:00,,0822.3,5.00,0.00,22.2,20.6,00.0,31.2,23.9,07.9,0000.0,0000.79,0000.49,0000.39
2023-01-27 10:44:00,,0822.3,5.00,0.00,22.2,20.6,00.0,31.1,23.9,07.9,0000.0,0000.80,0000.50,0000.39
2023-01-27 10:45:00,,0822.4,5.01,0.00,22.2,20.6,00.0,31.1,23.9,07.9,0000.0,0000.80,0000.50,0000.39
2023-01-27 10:46:00,,0822.4,4.98,0.00,22.2,20.6,00.0,31.1,23.9,08.1,0000.0,0000.79,0000.50,0000.39
2023-01-27 10:47:00,,0822.4,5.01,0.00,22.2,20.6,00.0,31.1,23.9,08.2,0000.0,0000.80,0000.51,0000.39
2023-01-27 10:48:00,,0822.4,5.02,0.00,22.2,20.7,00.0,31.1,23.9,08.2,0000.0,0000.78,0000.52,0000.39
2023-01-27 10:49:00,,0822.3,5.02,0.00,22.2,20.6,00.0,31.1,23.9,08.1,0000.0,0000.68,0000.49,0000.39
2023-01-27 10:50:00,,0822.3,5.00,0.00,22.2,20.6,00.0,31.1,23.9,07.9,0000.0,0000.71,0000.50,0000.40
2023-01-27 10:51:00,,0822.4,5.01,0.00,22.2,20.9,00.0,31.0,23.9,07.8,0000.0,0000.79,0000.53,0000.40
2023-01-27 10:52:00,,0822.3,5.02,0.00,22.2,21.9,00.0,31.0,24.2,07.9,0000.0,0000.82,0000.55,0000.41
2023-01-27 10:53:00,,0822.3,4.99,0.00,22.3,22.6,00.0,31.0,24.4,08.1,0000.0,0000.90,0000.57,0000.41
2023-01-27 10:54:00,,0822.3,4.98,0.00,22.4,22.3,00.0,31.1,24.4,08.2,0000.0,0000.97,0000.59,0000.41
2023-01-27 10:55:00,,0822.2,5.02,0.00,22.4,22.0,00.0,31.1,24.3,08.4,0000.0,0000.95,0000.57,0000.39
2023-01-27 10:56:00,,0822.2,5.00,0.00,22.4,21.7,00.0,31.1,24.3,08.4,0000.0,0001.05,0000.58,0000.39
2023-01-27 10:57:00,,0822.2,5.00,0.00,22.4,21.5,00.0,31.2,24.2,08.4,0000.0,0001.09,0000.56,0000.38
2023-01-27 10:58:00,,0822.1,5.00,0.00,22.4,21.2,00.0,31.2,24.1,08.3,0000.0,0001.18,0000.58,0000.37
2023-01-27 10:59:00,,0822.1,5.01,0.00,22.3,21.0,00.0,31.2,24.0,08.4,0000.0,0001.24,0000.57,0000.36
